Theta_e
343 345 345 340 340 340 343 346 348 349 350 350 350 350 349 350 350 349 345 343 339 336 335 336 337 341 347 346 345 346 347 347 346 346 345 345 344 344 343 343 342 342 341 341 341 341 341 341 341 342 341 341 342 338 332 332 332 334 333 335 338 330
340 341 340 336 337 341 342 344 341 344 345 346 347 347 344 342 346 338 343 339 338 339 335 333 337 345 340 343 344 347 347 347 346 346 346 345 344 344 343 343 342 342 342 341 339 329 331 337 341 341 340 341 337 332 332 332 331 332 333 333 335 334
341 338 335 336 340 341 342 341 340 340 342 345 346 344 340 341 333 334 334 337 339 337 335 336 336 338 338 341 340 344 346 347 347 347 346 345 345 344 344 344 343 342 341 338 330 326 324 325 328 339 338 330 328 331 332 331 331 331 332 333 332 335
340 336 337 336 339 341 340 341 341 339 339 339 341 341 341 336 334 333 333 335 335 336 335 332 344 345 344 335 335 341 343 343 345 346 346 345 345 344 343 344 342 342 336 331 327 326 326 326 327 325 327 329 330 330 331 331 330 330 330 335 330 336
332 334 335 334 337 340 340 342 343 340 338 340 340 339 338 336 334 333 333 335 335 336 334 334 335 336 332 332 331 332 335 335 337 338 344 338 339 340 339 336 336 334 330 330 327 325 327 327 328 328 329 330 331 330 330 331 330 330 330 333 333 336
334 332 333 334 338 342 341 341 342 340 339 339 339 338 337 336 334 333 333 335 336 334 335 335 335 334 331 330 331 332 332 331 332 335 339 337 336 336 335 334 334 333 332 330 328 327 328 330 327 327 328 329 330 331 330 330 331 331 330 332 335 336
332 333 333 334 338 343 342 343 343 341 338 337 338 337 336 335 333 332 334 336 333 331 333 336 336 335 333 331 331 332 331 331 332 334 337 337 337 337 336 334 332 332 331 331 329 328 327 327 326 328 328 328 330 331 330 330 330 331 331 332 334 337
334 333 332 334 338 344 342 343 344 343 339 339 337 335 335 334 333 332 335 335 336 332 332 334 334 334 331 330 331 332 330 330 332 333 335 338 338 337 335 332 331 330 331 331 331 329 327 327 326 327 328 328 329 330 331 330 331 331 331 331 333 337
337 333 333 334 337 342 342 342 343 342 338 341 335 334 333 332 332 332 333 336 336 331 331 332 332 333 329 330 330 331 331 330 331 332 333 334 337 337 336 333 330 330 329 329 328 328 328 326 326 326 326 328 329 330 330 330 330 331 331 332 332 336
338 335 334 335 337 340 340 340 341 340 338 341 335 333 331 331 332 332 333 336 335 332 332 331 331 330 329 328 330 330 331 329 329 330 332 333 334 336 336 333 331 332 331 328 329 330 326 326 326 326 326 329 330 331 330 331 332 333 333 333 333 336
337 336 334 335 337 338 338 336 336 334 336 338 336 335 332 330 330 331 333 336 335 334 332 331 331 330 329 328 329 329 329 328 329 329 331 332 333 334 335 333 331 331 329 328 327 328 327 327 327 327 327 328 329 331 331 332 333 333 333 333 334 334
332 333 334 334 337 337 336 334 334 331 331 330 333 330 329 329 334 330 332 332 332 331 333 330 330 331 332 329 329 329 328 327 326 329 331 331 332 333 333 333 333 331 328 328 328 328 329 328 327 328 328 327 328 329 330 331 332 331 332 333 332 333
329 330 330 334 335 335 334 334 331 330 330 332 330 328 328 329 330 330 331 330 330 330 332 330 329 333 334 330 329 329 330 328 327 328 332 332 333 332 332 330 329 328 328 329 329 328 328 328 328 328 329 328 328 328 328 329 330 331 332 331 332 332
328 327 333 335 334 333 332 332 331 329 332 329 328 327 329 327 330 330 330 328 328 329 330 331 331 332 334 330 328 330 331 329 328 330 331 331 331 330 329 328 328 329 330 327 326 326 327 326 327 328 328 327 327 327 328 328 327 329 331 331 332 332
328 328 332 333 335 332 332 333 331 329 329 327 328 328 329 331 330 329 330 329 329 330 330 332 331 331 330 329 328 329 331 331 331 328 328 330 330 328 329 328 327 326 326 326 326 324 324 324 325 326 326 326 327 327 327 328 328 327 327 330 331 330
329 330 331 333 331 330 332 331 330 333 329 328 327 326 327 330 332 332 332 330 330 331 329 330 331 331 330 329 328 327 328 330 330 328 327 328 328 327 327 326 326 326 324 324 324 322 324 324 325 325 326 326 326 326 326 326 326 326 326 326 326 327
328 329 330 330 331 330 328 327 327 329 329 327 325 324 325 326 328 328 329 329 330 332 329 329 329 330 330 328 326 325 327 328 330 328 326 325 325 326 326 325 324 325 325 324 323 323 323 324 324 326 326 325 325 325 325 327 327 327 327 326 326 326
327 328 330 331 329 326 326 327 327 329 331 327 325 325 325 326 325 324 325 326 328 330 329 327 328 329 327 327 326 326 326 327 327 326 326 325 323 323 323 325 323 323 324 324 322 322 323 324 325 326 325 323 325 325 325 326 327 328 328 327 326 327
327 327 328 327 324 324 325 325 325 325 324 324 324 324 325 324 324 324 323 325 327 328 328 327 329 331 329 327 326 327 327 327 326 325 325 324 323 324 323 322 322 321 323 323 323 323 324 325 326 325 324 324 327 327 326 326 326 325 326 326 328 328
325 325 324 322 324 325 325 326 324 322 322 321 320 323 321 322 323 324 326 325 325 326 328 327 329 332 331 327 326 327 325 326 326 324 324 323 322 322 322 322 322 323 323 324 326 325 324 323 323 325 325 326 327 327 327 326 326 325 324 325 324 325
322 322 321 321 324 325 322 320 318 319 319 316 321 319 319 317 320 323 324 326 327 326 327 328 330 332 332 329 326 326 325 325 326 324 324 323 323 323 323 323 323 324 323 322 323 327 326 324 322 321 323 323 323 327 327 326 325 325 325 324 323 322
321 320 321 323 324 323 321 323 320 317 316 314 316 317 317 316 317 318 319 322 326 325 326 328 331 332 332 328 326 325 325 325 325 324 324 324 323 325 324 323 323 323 325 324 324 327 325 323 317 318 317 316 318 320 324 324 323 324 325 323 322 322
320 319 317 319 321 320 316 318 317 315 316 313 313 314 314 315 316 315 315 317 320 322 324 325 330 332 330 328 326 325 324 325 325 326 324 324 323 322 322 322 322 321 320 321 323 325 323 321 318 318 319 317 312 310 314 317 319 320 320 320 319 320
319 318 317 319 320 318 318 316 316 315 315 314 314 316 313 314 314 314 314 315 316 317 319 322 326 328 327 327 326 325 324 325 325 325 325 323 323 323 323 323 323 322 321 319 318 320 324 321 319 318 313 314 313 310 306 312 314 318 319 319 319 318
319 317 318 320 319 318 317 315 315 314 315 314 313 311 312 311 313 318 315 313 314 315 316 317 320 324 326 323 324 325 324 323 323 322 322 322 322 323 324 324 323 322 321 320 318 319 322 323 321 323 318 314 311 308 308 314 312 314 317 318 318 320
318 317 317 317 318 318 317 315 313 312 310 309 309 310 309 309 309 310 310 311 311 311 312 313 315 320 324 324 323 323 323 323 322 322 321 321 321 321 321 322 321 322 320 319 320 319 317 321 322 321 319 318 315 312 311 315 312 309 313 316 317 319
318 316 316 317 319 318 315 315 314 313 312 311 310 308 307 308 309 309 310 309 309 310 310 312 314 317 319 320 319 320 322 322 322 322 323 321 320 320 320 322 321 320 319 319 320 317 317 318 321 320 319 320 321 318 316 314 310 307 309 313 314 313
318 317 316 317 317 317 315 313 312 311 312 310 310 309 309 309 310 312 308 308 308 309 310 312 314 314 316 318 316 316 318 319 319 319 321 318 318 318 320 321 322 320 319 320 320 320 319 321 319 317 319 319 319 317 318 317 313 313 309 308 310 312
316 316 315 317 317 316 316 313 312 312 310 309 310 311 312 313 310 309 307 306 308 308 309 310 311 313 314 316 318 315 315 316 316 317 317 314 314 315 315 316 318 319 318 317 319 320 321 319 318 317 317 314 311 309 309 311 313 313 311 305 305 304
314 314 314 315 315 314 314 314 312 311 311 311 312 310 309 309 308 307 306 305 306 307 308 309 310 311 312 312 313 314 312 312 312 315 315 311 311 311 312 312 313 313 313 313 314 318 318 316 318 317 317 313 308 306 306 305 305 304 305 306 303 303
314 314 313 313 313 313 313 313 312 312 312 311 310 309 309 308 307 306 306 305 306 306 307 308 309 309 310 310 312 314 310 311 313 316 312 309 309 309 309 309 309 310 311 311 311 311 310 310 308 307 306 307 306 307 306 304 303 303 303 301 300 300
316 315 314 313 313 312 312 312 313 313 312 312 311 310 309 308 307 306 305 305 305 306 306 307 307 308 309 309 311 310 312 310 310 308 308 308 308 308 308 307 307 308 307 308 308 308 306 305 305 305 304 305 305 305 305 305 304 303 303 302 301 300
316 316 316 315 314 314 313 313 313 313 313 312 311 310 309 309 307 307 305 305 305 305 305 307 306 307 307 307 309 308 308 308 308 308 307 306 306 306 305 305 305 304 305 305 305 305 304 303 304 304 303 303 304 305 305 304 304 303 302 301 301 299
317 316 317 316 315 315 315 314 314 315 314 313 311 311 310 310 308 307 306 306 305 306 306 306 306 306 307 307 308 309 308 307 306 306 306 305 305 305 305 304 304 304 303 303 303 303 302 302 302 302 303 303 303 304 303 303 303 303 302 302 301 300
316 316 317 316 316 316 317 316 315 315 315 313 312 312 312 312 309 307 306 306 305 305 306 306 306 306 308 306 306 306 306 306 305 306 306 307 308 307 307 305 305 304 303 302 302 303 301 301 301 301 302 302 303 302 303 303 304 304 303 304 303 302
314 315 316 315 315 316 316 316 315 314 315 316 315 314 313 313 311 309 307 306 305 305 305 306 305 307 306 306 306 307 308 305 305 306 306 306 306 306 305 305 304 304 304 306 302 301 301 301 301 302 302 302 303 302 303 303 304 303 303 304 304 301
314 315 315 315 315 316 316 315 316 316 315 316 315 315 314 313 311 309 307 306 306 305 305 305 306 308 306 306 306 306 306 305 306 306 306 307 306 305 305 306 305 304 304 304 303 301 302 302 301 302 302 303 303 303 303 305 304 304 304 303 303 303
Wind_Speed
5 5 6 7 7 6 5 11 11 13 12 11 11 11 11 11 9 9 8 7 6 5 5 4 3 1 8 4 8 10 11 11 11 10 10 10 9 8 7 6 5 6 7 7 8 9 7 6 4 4 5 6 9 5 4 4 4 3 3 2 2 1
4 6 6 9 5 7 6 6 4 6 6 6 6 7 5 4 7 5 9 6 3 3 3 1 0 2 3 3 4 8 10 10 10 10 10 9 8 7 6 5 5 6 8 7 7 4 4 6 5 3 1 3 4 4 4 4 4 3 3 3 2 2
5 8 10 10 5 7 8 5 5 5 4 6 6 6 3 5 5 4 4 4 2 3 3 2 2 1 2 5 2 3 7 9 10 10 9 9 8 7 5 5 5 6 8 7 3 3 3 3 2 4 4 2 1 3 4 4 4 3 3 3 3 4
7 5 2 5 3 6 7 7 6 5 4 4 4 5 4 4 5 3 4 4 3 3 3 2 4 6 5 3 2 3 3 5 8 9 9 6 7 6 6 4 4 7 5 3 3 3 4 4 3 2 1 1 1 2 3 4 3 3 3 3 3 5
8 8 5 3 3 4 4 4 5 6 4 3 4 4 3 3 4 5 4 4 4 3 3 3 0 3 4 2 1 3 3 4 1 1 5 4 4 3 3 2 3 4 2 2 3 3 3 4 3 3 2 1 1 2 3 2 3 3 3 3 3 5
5 5 2 4 3 2 1 3 5 6 5 3 4 4 4 4 4 5 4 4 4 4 4 4 2 3 3 2 2 2 3 2 2 2 3 4 4 4 3 2 3 2 2 3 3 2 2 2 3 2 2 0 2 3 3 3 3 2 3 2 3 6
8 7 4 3 2 1 1 2 5 6 5 5 4 5 5 4 3 4 5 5 5 4 4 4 4 4 3 2 1 2 3 2 3 3 3 4 4 3 2 2 2 2 3 3 3 2 2 2 3 3 2 1 0 3 4 4 4 3 3 3 3 6
7 8 7 4 3 4 4 4 5 6 5 5 6 5 5 4 4 4 4 5 5 5 5 3 3 4 4 4 2 1 3 3 3 3 3 4 4 3 3 3 3 2 2 3 3 2 2 2 3 3 3 3 3 3 3 3 2 2 2 2 2 4
4 3 5 4 3 2 4 4 4 4 5 7 5 5 4 4 4 4 3 4 4 4 3 3 4 4 4 4 4 3 3 2 3 3 3 3 4 3 2 2 2 2 2 2 2 2 1 2 3 2 3 3 3 3 3 2 2 2 2 2 1 1
2 2 4 4 2 1 4 5 4 4 4 5 4 3 3 4 4 5 4 3 4 4 5 5 4 2 3 4 4 4 4 2 2 2 3 4 4 3 3 2 2 2 2 2 3 2 3 4 4 4 3 3 3 3 3 3 2 1 2 2 1 0
2 3 2 4 3 1 2 3 4 3 4 3 4 4 4 2 2 3 3 3 4 3 4 4 3 3 3 4 3 3 4 3 1 1 2 3 4 3 3 3 2 2 2 4 4 3 4 5 4 5 4 4 2 2 3 3 3 4 4 4 2 2
7 4 2 4 4 3 4 4 3 3 3 2 3 2 3 2 3 2 3 3 3 3 2 4 5 4 3 3 3 4 6 5 5 6 1 2 4 3 3 3 2 2 4 4 4 4 4 5 5 5 5 4 4 3 2 2 3 5 2 4 4 2
2 2 6 3 5 5 4 4 4 3 3 2 2 2 3 3 3 2 2 3 3 2 3 4 5 6 5 4 4 5 6 6 6 5 4 4 5 5 4 3 4 3 4 4 5 5 5 5 6 5 4 4 4 4 3 3 2 4 5 4 4 2
6 4 6 4 5 5 4 4 2 2 0 2 2 2 1 1 1 1 1 2 2 2 3 3 4 5 5 4 3 4 4 4 4 5 4 4 5 5 5 4 3 5 4 4 5 6 7 7 6 4 4 4 4 4 4 4 4 3 1 1 3 2
6 6 4 6 6 4 3 3 4 1 2 2 3 2 1 1 1 1 2 2 3 3 3 3 3 6 5 4 5 5 3 2 3 6 4 2 4 4 5 5 5 6 4 5 7 10 8 5 2 3 4 3 4 4 5 4 4 4 4 3 4 1
6 5 6 7 2 3 4 4 4 5 4 3 3 3 2 2 3 3 3 3 4 4 3 2 3 5 5 5 4 5 5 5 7 6 3 2 2 4 5 5 3 6 6 5 8 9 5 4 1 4 3 3 4 4 5 5 4 4 3 3 2 5
7 7 6 4 1 0 1 2 2 5 5 4 4 2 1 0 1 1 3 4 4 5 5 4 4 5 5 4 3 5 5 4 5 6 4 4 5 4 3 5 3 2 5 5 7 9 5 4 3 2 4 4 4 4 4 3 3 3 2 3 3 3
6 4 5 3 2 2 2 3 4 5 4 4 3 2 1 1 3 3 5 5 5 5 5 4 4 5 5 4 5 7 5 4 4 4 4 5 1 3 2 4 5 3 3 5 5 7 5 2 1 3 1 1 2 3 3 2 2 3 4 4 5 5
6 5 4 3 3 3 3 4 5 5 5 4 2 2 2 3 3 4 5 4 5 5 6 3 5 5 5 5 6 6 5 4 4 5 5 4 2 3 4 4 6 5 4 3 5 6 7 5 3 1 2 2 2 3 2 2 2 3 3 3 1 2
8 8 6 5 5 5 4 5 5 3 4 2 2 3 2 2 3 5 5 5 5 5 5 5 5 5 5 5 6 6 6 5 4 5 5 4 3 3 4 6 5 7 7 5 4 5 5 6 4 5 4 3 3 3 3 1 2 3 4 3 3 2
10 11 10 8 6 7 5 4 2 3 4 0 1 2 3 2 4 4 5 5 5 4 4 4 4 5 5 5 6 5 5 5 4 4 5 5 4 4 3 5 5 4 5 5 3 3 3 5 6 3 2 3 2 4 5 5 4 3 3 1 2 3
10 9 10 10 8 6 4 5 5 5 4 2 3 3 4 4 2 3 4 5 5 5 4 4 5 5 5 6 6 5 5 5 4 4 4 3 2 1 4 4 4 4 3 4 3 3 1 2 2 3 3 1 2 3 3 3 2 2 3 2 2 2
9 8 7 8 8 6 2 2 3 3 4 4 3 2 2 2 3 5 5 4 5 6 6 4 4 5 4 4 5 6 5 4 4 4 5 4 4 3 3 4 4 4 3 3 3 2 2 2 4 3 3 3 1 1 1 1 0 1 2 2 3 3
8 7 7 6 7 6 6 6 6 6 5 5 4 2 3 4 5 7 7 5 5 4 5 7 6 5 4 5 5 5 5 5 5 5 6 5 4 4 3 2 3 4 4 4 2 3 3 4 3 3 3 2 1 2 2 2 2 2 2 2 4 3
8 8 7 8 9 9 8 7 6 7 6 6 4 4 5 6 5 4 4 7 6 4 4 5 5 6 7 6 5 6 6 5 5 4 4 4 4 3 4 4 4 5 5 5 4 2 4 6 5 1 5 4 3 2 1 1 2 1 4 3 4 3
6 6 8 8 10 9 8 9 7 7 6 5 4 3 3 3 3 4 3 1 5 6 5 5 5 6 6 5 5 5 5 5 4 4 4 4 4 3 3 4 4 5 4 2 4 4 3 3 2 3 4 2 2 2 3 1 1 2 2 1 3 3
7 6 6 7 8 9 7 6 7 7 7 7 6 0 1 1 3 3 3 5 4 4 5 4 5 5 5 5 6 5 5 5 5 5 4 5 4 5 4 4 3 5 4 5 5 4 6 4 3 3 1 4 4 2 2 3 2 2 3 3 4 4
6 7 5 7 7 8 8 6 7 5 5 5 4 4 2 3 3 3 6 5 4 4 4 3 5 5 4 5 6 6 5 5 5 5 5 5 5 4 3 2 3 3 4 4 5 6 6 6 5 3 1 4 5 5 4 5 4 3 4 4 4 4
9 4 5 6 8 6 8 8 8 7 5 2 4 4 3 3 4 3 6 4 5 4 5 5 5 5 5 5 5 6 5 5 5 3 3 4 4 4 5 5 5 5 5 4 4 5 7 5 5 5 5 4 4 5 5 4 4 5 4 3 1 2
7 6 4 2 6 5 6 8 8 7 8 6 5 4 4 5 3 3 5 3 3 5 4 5 5 4 5 5 5 5 5 5 4 4 3 5 5 5 4 5 4 5 5 6 4 5 6 5 5 5 3 5 4 3 4 5 5 4 5 5 5 1
9 7 9 9 4 4 4 5 7 7 9 9 6 7 7 4 4 4 5 3 4 4 3 5 4 4 5 5 5 5 5 4 3 4 5 5 5 5 5 5 5 6 6 7 6 7 6 5 5 5 5 5 5 4 4 4 4 5 4 3 3 2
10 12 11 10 9 7 6 3 2 7 8 8 8 7 8 7 5 6 4 4 2 4 4 4 3 5 5 4 5 5 4 4 5 5 5 5 5 5 5 5 5 6 6 6 6 7 7 7 7 6 6 5 6 6 6 6 4 5 6 3 4 2
10 11 11 8 5 5 4 3 2 1 6 6 7 7 7 6 4 6 5 5 4 4 4 4 2 4 2 3 5 6 4 5 4 4 5 5 5 5 5 5 6 6 6 6 6 7 7 6 6 8 7 5 6 6 6 4 5 6 4 4 4 4
8 10 13 13 9 6 5 3 2 0 2 5 6 6 6 7 5 4 5 5 5 5 5 4 3 3 3 2 2 4 4 4 4 4 4 5 5 4 5 6 5 6 6 5 6 7 8 7 7 6 6 7 6 6 5 4 5 5 5 4 4 4
17 7 3 7 10 10 7 5 3 3 1 2 3 3 3 3 5 5 4 5 3 3 5 3 4 2 1 2 3 4 4 5 4 4 4 5 5 5 5 6 6 7 6 5 7 7 6 7 7 6 5 6 6 6 5 4 5 5 5 5 5 3
10 9 10 12 12 14 11 8 2 3 5 4 2 3 2 1 2 3 5 6 5 3 3 3 1 1 1 2 3 4 3 3 3 3 4 5 5 6 6 7 6 6 6 4 7 7 6 7 7 6 6 5 7 6 5 5 5 5 5 5 5 4
8 10 12 13 12 10 9 8 6 4 1 3 2 3 1 5 4 4 4 4 6 4 3 2 2 1 0 0 1 4 4 3 2 2 3 3 4 4 4 6 6 6 6 5 7 8 6 7 6 6 6 5 6 6 5 5 5 5 5 4 4 4
Wind_Direction
134 132 117 110 104 133 137 167 165 145 142 152 157 158 155 148 133 128 96 89 63 60 54 46 65 108 151 138 150 146 147 147 142 141 142 142 141 144 144 141 132 98 89 84 80 78 72 63 96 134 140 141 154 138 144 144 147 145 144 136 125 92
114 114 75 86 148 141 157 174 112 124 131 138 131 137 129 101 100 78 93 82 76 87 77 39 312 121 83 97 137 154 151 151 149 148 147 145 143 145 146 149 138 111 100 92 93 82 64 61 58 131 136 131 130 152 154 160 156 156 150 149 129 190
120 92 118 146 150 147 156 155 136 117 124 134 140 100 84 94 75 93 100 106 107 104 122 178 186 131 88 77 65 150 163 156 158 155 150 149 149 153 153 156 140 121 109 110 84 90 86 67 12 47 34 13 79 170 166 163 160 153 155 169 147 194
82 78 131 114 167 174 168 152 136 120 111 116 108 114 112 107 109 116 123 132 149 124 136 203 197 172 126 66 23 26 358 186 168 159 153 147 153 155 157 156 145 108 96 77 92 81 90 88 73 50 53 4 359 190 176 174 160 150 148 181 179 199
101 177 152 97 220 221 155 117 112 119 122 124 108 127 135 122 138 137 146 153 161 126 142 209 196 73 95 103 49 31 13 35 43 124 139 104 109 122 111 98 69 87 92 115 98 84 84 83 84 84 63 357 67 142 171 169 168 151 154 187 180 200
127 25 88 164 226 266 25 89 109 124 129 134 143 162 161 161 160 137 152 161 145 116 153 200 139 113 100 120 111 52 51 40 37 75 112 108 95 91 97 100 102 98 105 93 77 93 98 108 109 100 92 343 126 154 175 187 177 155 158 180 195 198
155 168 193 157 304 143 102 76 127 141 148 156 164 173 176 166 167 152 150 156 149 152 176 190 178 144 140 111 88 95 81 62 73 81 93 112 102 103 115 112 107 120 111 78 76 68 79 89 118 129 146 200 153 181 184 191 196 175 161 180 202 194
151 166 127 138 222 172 165 148 144 158 151 171 174 189 194 177 168 163 159 165 166 165 169 178 168 150 142 122 105 93 98 100 104 110 114 113 122 117 128 121 121 103 81 78 86 55 52 112 145 159 156 176 173 186 202 220 240 141 143 183 194 207
152 138 104 150 217 155 138 138 171 157 162 181 182 198 190 158 161 166 167 165 164 160 146 167 193 172 142 122 112 110 101 119 135 143 121 116 128 137 134 120 125 109 104 100 102 74 115 89 98 120 150 180 180 172 178 184 175 149 135 136 137 244
91 34 95 156 221 151 158 162 182 176 168 181 187 193 194 183 168 162 171 175 190 174 165 170 191 152 121 100 118 117 115 88 120 130 129 136 119 134 138 125 105 105 91 78 58 33 92 78 78 74 76 120 150 150 157 150 138 94 61 60 43 40
11 130 119 160 192 209 175 184 187 171 186 182 169 183 199 207 164 164 164 173 197 198 147 133 139 116 86 103 118 123 111 96 31 214 158 133 125 124 131 126 131 126 103 70 64 61 68 78 64 55 50 70 66 97 132 140 107 50 28 26 24 16
3 339 176 156 197 204 196 201 187 177 194 130 145 162 175 182 210 191 149 172 193 201 129 127 131 116 107 107 117 107 80 52 349 323 310 165 123 115 117 112 103 85 78 83 73 55 49 77 60 50 51 44 33 42 50 63 97 147 176 44 343 19
85 356 294 207 199 201 198 192 180 201 202 165 135 145 161 180 203 202 151 154 184 163 107 124 126 128 136 161 147 114 138 165 175 204 236 178 124 112 99 86 59 69 76 86 78 58 48 50 60 46 59 55 54 39 19 41 58 103 115 190 230 279
166 214 258 220 196 196 188 188 176 211 207 80 124 128 164 165 194 186 152 134 123 89 100 129 133 125 131 147 116 114 161 179 199 190 193 151 117 119 111 103 98 73 59 63 66 53 38 30 33 44 40 50 65 52 49 51 34 35 55 233 218 280
178 192 244 236 204 187 174 169 178 119 70 105 67 60 59 103 136 111 113 121 92 101 104 140 145 125 150 139 142 139 127 106 78 40 359 354 120 103 116 117 120 97 82 70 70 57 53 55 354 13 34 27 62 71 65 62 59 55 49 322 310 244
176 186 226 233 210 178 159 158 143 131 129 107 101 111 152 166 161 157 153 105 90 114 116 130 141 128 135 152 160 134 117 101 88 108 140 219 67 105 109 105 122 141 115 93 96 102 118 125 94 52 30 27 41 52 59 52 47 46 42 69 32 360
172 189 229 250 244 41 60 76 86 97 110 111 123 115 125 75 70 84 86 94 110 116 119 126 123 129 140 149 126 93 90 106 129 138 148 85 71 48 103 114 75 54 129 127 110 112 122 151 175 135 60 40 31 36 61 57 62 66 45 30 53 84
177 183 213 206 170 110 94 77 64 81 96 94 105 151 152 55 45 48 68 93 104 114 121 120 115 123 118 119 111 104 103 94 99 113 87 79 79 119 81 114 102 31 80 110 125 115 121 171 176 104 120 49 40 47 47 53 78 75 41 34 20 16
162 174 184 152 122 112 105 76 68 80 86 99 114 101 107 70 69 72 79 99 109 115 113 122 117 129 119 117 107 110 110 90 88 86 97 100 62 54 89 90 111 98 58 97 133 125 148 155 145 138 119 131 134 98 74 50 25 52 56 48 352 311
163 159 150 141 140 126 109 115 111 107 94 85 99 116 89 100 96 91 98 108 108 121 129 140 130 123 116 113 106 114 114 109 110 108 110 101 92 108 128 110 108 119 116 94 72 103 120 123 139 141 118 91 72 105 102 101 24 54 63 19 320 34
161 156 151 151 152 146 134 125 89 105 132 287 118 122 91 68 64 72 89 100 115 112 116 121 126 128 132 120 113 121 109 98 98 104 116 130 133 129 126 119 107 87 102 101 86 120 132 150 133 77 52 77 56 65 60 40 18 11 57 30 330 331
155 160 156 156 154 157 166 167 151 163 141 83 30 22 39 12 47 79 90 93 97 103 110 112 126 125 121 117 133 120 103 118 118 96 80 72 92 115 100 80 94 83 62 100 104 86 55 73 19 143 125 3 10 39 42 45 42 11 345 350 330 318
157 151 149 142 139 142 121 103 118 151 135 92 47 50 80 40 40 44 49 81 111 125 118 100 114 125 125 120 118 117 125 112 115 118 116 130 125 104 99 116 100 115 98 58 92 79 59 54 147 112 117 103 13 52 290 75 201 104 349 317 332 345
152 140 137 134 117 106 100 86 75 99 78 90 110 64 58 42 46 45 31 30 40 50 101 124 133 122 114 121 126 124 124 122 130 136 141 142 139 145 146 117 105 117 124 115 79 72 42 50 92 147 51 82 124 87 22 321 344 312 352 343 20 1
145 140 133 127 121 119 109 89 88 71 73 72 49 43 49 37 32 62 55 25 5 28 59 69 70 91 110 115 120 127 122 121 118 127 122 122 148 157 155 154 149 138 161 147 134 128 81 60 55 133 151 108 51 16 214 246 50 315 3 9 4 21
127 126 126 130 130 127 126 126 114 103 87 76 76 62 95 109 60 48 65 29 26 24 31 57 71 91 100 108 107 116 115 113 109 102 119 147 148 126 150 153 171 154 164 127 136 135 114 111 152 47 50 126 163 167 183 205 93 130 317 95 325 8
135 122 120 127 128 123 123 127 129 132 138 144 138 261 351 29 96 71 66 68 71 42 33 63 63 72 84 91 94 90 95 105 118 128 140 139 156 170 167 163 153 156 163 132 121 128 133 137 115 75 341 65 70 47 108 133 170 96 76 328 14 1
133 117 118 131 128 134 131 125 111 109 123 133 136 142 106 72 49 70 63 36 58 54 62 70 96 89 96 106 109 108 118 124 126 144 146 158 165 161 124 128 160 141 120 133 137 131 140 150 150 138 116 78 62 47 51 73 89 142 135 115 344 344
13 61 126 140 137 140 134 136 129 127 106 64 105 101 81 58 64 50 67 27 52 41 45 48 58 90 90 101 106 118 120 120 121 123 114 112 103 122 138 139 132 126 130 109 123 141 136 153 137 138 109 68 77 83 66 64 68 68 118 119 16 0
38 8 341 130 126 116 122 125 126 130 127 125 111 85 84 82 68 67 77 49 54 54 50 58 47 54 76 70 87 93 93 99 110 109 90 97 95 86 78 78 83 102 104 94 73 108 127 131 122 126 136 150 121 109 60 49 39 78 61 62 118 183
104 61 28 4 26 86 103 126 136 140 136 136 137 130 116 94 99 84 93 56 63 63 55 66 66 61 68 79 79 75 92 93 84 85 93 97 100 107 98 99 94 93 95 109 111 107 98 97 108 98 90 104 117 126 145 124 103 73 107 116 67 355
101 93 74 66 55 28 22 29 107 139 142 147 148 143 139 147 146 131 126 100 65 78 51 51 51 78 68 69 85 79 74 78 79 88 88 97 99 100 100 97 93 96 97 97 104 102 108 108 102 95 87 98 105 107 92 113 140 131 117 140 127 159
93 75 85 85 74 80 83 80 10 160 143 152 147 142 142 144 156 140 137 121 109 106 84 76 51 90 86 99 110 103 99 104 91 84 102 97 93 95 98 93 97 92 97 106 115 117 111 117 117 111 111 87 100 95 102 110 116 112 76 108 117 102
109 164 151 138 137 107 88 82 89 78 185 147 149 145 147 148 160 145 145 141 148 149 151 156 161 172 166 148 103 110 115 105 111 117 116 113 112 111 107 103 102 99 95 99 100 96 102 101 92 101 113 106 97 102 105 112 125 116 129 97 62 92
181 170 83 84 85 74 45 21 40 68 33 77 116 115 124 128 145 149 149 137 152 152 150 179 172 191 141 108 108 103 116 120 130 130 129 121 118 111 107 101 100 107 103 107 99 103 106 112 110 115 103 111 111 92 106 114 108 101 120 110 119 140
157 144 148 162 159 147 144 142 145 142 145 124 111 93 62 99 160 164 156 149 161 172 163 145 176 116 177 114 131 123 113 130 137 133 128 128 128 120 121 113 113 117 119 137 115 111 120 108 112 111 108 112 99 106 119 115 107 117 105 122 114 113
146 168 172 172 165 151 140 104 103 96 45 101 103 83 302 246 189 163 158 154 156 167 133 113 108 66 344 43 146 132 136 140 146 130 116 114 117 119 122 120 126 126 127 136 118 124 127 114 125 125 116 114 115 122 122 117 108 113 119 113 116 119